• în România
  • Lista ţărilor
  • Pe 7 zile
  • Temperatura apei
  • Hartă satelitară
  • Meteo pe hartă
  • Widget-uri
  • user-avatar
    Intrare

    Meteo pe oră la Novki

    Astăzi, 22 Septembrie, Sâmbătă

    Timp Temperatura Precipitaţii Vânt Presiune Umiditate
    00:00 +17°C° 0 mm 3 m/s 746 mmHg 83%
    01:00 +17°C° 0 mm 3 m/s 746 mmHg 81%
    02:00 +16°C° 0 mm 3 m/s 745 mmHg 80%
    03:00 +16°C° 0 mm 3 m/s 745 mmHg 79%
    04:00 +15°C° 0 mm 4 m/s 745 mmHg 77%
    05:00 +17°C° 0 mm 4 m/s 744 mmHg 76%
    06:00 +17°C° 0 mm 4 m/s 744 mmHg 72%
    07:00 +17°C° 0 mm 5 m/s 743 mmHg 68%
    08:00 +19°C° 0 mm 5 m/s 743 mmHg 63%
    09:00 +21°C° 0 mm 6 m/s 742 mmHg 58%
    10:00 +22°C° 0 mm 6 m/s 742 mmHg 52%
    11:00 +23°C° 0 mm 7 m/s 742 mmHg 47%
    12:00 +23°C° 0.1 mm 6 m/s 742 mmHg 51%
    13:00 +22°C° 0.1 mm 5 m/s 742 mmHg 56%
    14:00 +22°C° 0.1 mm 5 m/s 742 mmHg 60%
    15:00 +19°C° 0.4 mm 5 m/s 742 mmHg 70%
    16:00 +17°C° 0.4 mm 4 m/s 742 mmHg 79%
    17:00 +13°C° 0.4 mm 4 m/s 742 mmHg 89%
    18:00 +12°C° 0.9 mm 4 m/s 742 mmHg 90%
    19:00 +11°C° 0.9 mm 3 m/s 743 mmHg 91%
    20:00 +10°C° 0.9 mm 3 m/s 743 mmHg 92%
    21:00 +10°C° 0.9 mm 3 m/s 743 mmHg 93%
    22:00 +10°C° 0.9 mm 3 m/s 743 mmHg 93%
    23:00 +10°C° 0.9 mm 3 m/s 743 mmHg 94%

    Mâine, 23 Septembrie, Duminică

    Timp Temperatura Precipitaţii Vânt Presiune Umiditate
    00:00 +10°C° 0.5 mm 3 m/s 743 mmHg 94%
    01:00 +10°C° 0.5 mm 3 m/s 743 mmHg 94%
    02:00 +9°C° 0.5 mm 2 m/s 743 mmHg 95%
    03:00 +9°C° 0 mm 2 m/s 743 mmHg 95%
    04:00 +9°C° 0 mm 2 m/s 742 mmHg 96%
    05:00 +8°C° 0 mm 2 m/s 742 mmHg 96%
    06:00 +9°C° 0 mm 3 m/s 742 mmHg 94%
    07:00 +9°C° 0 mm 3 m/s 742 mmHg 92%
    08:00 +9°C° 0 mm 3 m/s 742 mmHg 90%
    09:00 +11°C° 0 mm 4 m/s 742 mmHg 82%
    10:00 +12°C° 0 mm 4 m/s 742 mmHg 73%
    11:00 +14°C° 0 mm 5 m/s 742 mmHg 65%
    12:00 +14°C° 0.4 mm 5 m/s 741 mmHg 65%
    13:00 +14°C° 0.4 mm 5 m/s 741 mmHg 66%
    14:00 +14°C° 0.4 mm 5 m/s 741 mmHg 66%
    15:00 +13°C° 0.2 mm 4 m/s 741 mmHg 69%
    16:00 +12°C° 0.2 mm 3 m/s 741 mmHg 73%
    17:00 +12°C° 0.2 mm 3 m/s 741 mmHg 76%
    18:00 +11°C° 0.1 mm 3 m/s 741 mmHg 80%
    19:00 +9°C° 0.1 mm 3 m/s 742 mmHg 85%
    20:00 +8°C° 0.1 mm 2 m/s 742 mmHg 89%
    21:00 +8°C° 0 mm 3 m/s 742 mmHg 89%
    22:00 +8°C° 0 mm 3 m/s 742 mmHg 90%
    23:00 +8°C° 0 mm 3 m/s 742 mmHg 90%

    Poimâine, 24 Septembrie, Luni

    Timp Temperatura Precipitaţii Vânt Presiune Umiditate
    00:00 +7°C° 0 mm 2 m/s 741 mmHg 92%
    01:00 +7°C° 0 mm 2 m/s 741 mmHg 93%
    02:00 +6°C° 0 mm 2 m/s 741 mmHg 94%
    03:00 +6°C° 0 mm 2 m/s 741 mmHg 95%
    04:00 +6°C° 0 mm 2 m/s 740 mmHg 96%
    05:00 +6°C° 0 mm 2 m/s 740 mmHg 97%
    06:00 +7°C° 0 mm 2 m/s 740 mmHg 94%
    07:00 +7°C° 0 mm 2 m/s 739 mmHg 92%
    08:00 +8°C° 0 mm 2 m/s 739 mmHg 89%
    09:00 +9°C° 0.1 mm 2 m/s 739 mmHg 88%
    10:00 +10°C° 0.1 mm 2 m/s 738 mmHg 86%
    11:00 +10°C° 0.1 mm 2 m/s 738 mmHg 85%
    12:00 +10°C° 1.2 mm 2 m/s 737 mmHg 87%
    13:00 +10°C° 1.2 mm 2 m/s 736 mmHg 90%
    14:00 +9°C° 1.2 mm 3 m/s 735 mmHg 92%
    15:00 +9°C° 1.9 mm 3 m/s 735 mmHg 93%
    16:00 +8°C° 1.9 mm 4 m/s 734 mmHg 93%
    17:00 +7°C° 1.9 mm 4 m/s 733 mmHg 94%
    18:00 +7°C° 1.1 mm 5 m/s 733 mmHg 93%
    19:00 +7°C° 1.1 mm 5 m/s 733 mmHg 93%
    20:00 +7°C° 1.1 mm 6 m/s 732 mmHg 92%
    21:00 +7°C° 0.8 mm 6 m/s 732 mmHg 92%
    22:00 +7°C° 0.8 mm 6 m/s 733 mmHg 91%
    23:00 +6°C° 0.8 mm 7 m/s 733 mmHg 91%

    25 Septembrie, Marţi

    Timp Temperatura Precipitaţii Vânt Presiune Umiditate
    00:00 +6°C° 0.5 mm 7 m/s 734 mmHg 90%
    01:00 +5°C° 0.5 mm 7 m/s 734 mmHg 90%
    02:00 +5°C° 0.5 mm 7 m/s 735 mmHg 89%
    03:00 +5°C° 0.2 mm 7 m/s 736 mmHg 89%
    04:00 +4°C° 0.2 mm 7 m/s 737 mmHg 88%
    05:00 +4°C° 0.2 mm 6 m/s 737 mmHg 87%
    06:00 +4°C° 0 mm 6 m/s 738 mmHg 86%
    07:00 +4°C° 0 mm 6 m/s 739 mmHg 85%
    08:00 +4°C° 0 mm 6 m/s 740 mmHg 84%
    09:00 +4°C° 0 mm 6 m/s 741 mmHg 79%
    10:00 +5°C° 0 mm 6 m/s 742 mmHg 74%
    11:00 +7°C° 0 mm 6 m/s 743 mmHg 69%
    12:00 +7°C° 0 mm 6 m/s 743 mmHg 63%
    13:00 +8°C° 0 mm 7 m/s 744 mmHg 58%
    14:00 +9°C° 0 mm 7 m/s 745 mmHg 52%
    15:00 +8°C° 0 mm 6 m/s 745 mmHg 55%
    16:00 +7°C° 0 mm 5 m/s 746 mmHg 58%
    17:00 +7°C° 0 mm 5 m/s 746 mmHg 61%
    18:00 +6°C° 0 mm 4 m/s 747 mmHg 64%
    19:00 +5°C° 0 mm 4 m/s 748 mmHg 66%
    20:00 +4°C° 0 mm 4 m/s 749 mmHg 69%
    21:00 +3°C° 0 mm 3 m/s 749 mmHg 70%
    22:00 +3°C° 0 mm 3 m/s 750 mmHg 71%
    23:00 +2°C° 0 mm 3 m/s 750 mmHg 72%

    26 Septembrie, Miercuri

    Timp Temperatura Precipitaţii Vânt Presiune Umiditate
    00:00 +2°C° 0 mm 3 m/s 751 mmHg 75%
    01:00 +2°C° 0 mm 3 m/s 751 mmHg 79%
    02:00 +2°C° 0 mm 3 m/s 751 mmHg 83%
    03:00 +2°C° 0 mm 3 m/s 751 mmHg 84%
    04:00 +2°C° 0 mm 3 m/s 751 mmHg 85%
    05:00 +2°C° 0 mm 3 m/s 751 mmHg 87%
    06:00 +3°C° 0 mm 4 m/s 751 mmHg 83%
    07:00 +4°C° 0 mm 4 m/s 751 mmHg 79%
    08:00 +5°C° 0 mm 4 m/s 750 mmHg 76%
    09:00 +6°C° 0.1 mm 5 m/s 750 mmHg 76%
    10:00 +7°C° 0.1 mm 5 m/s 750 mmHg 77%
    11:00 +9°C° 0.1 mm 5 m/s 749 mmHg 77%
    12:00 +8°C° 0.3 mm 5 m/s 749 mmHg 80%
    13:00 +8°C° 0.3 mm 5 m/s 748 mmHg 83%
    14:00 +8°C° 0.3 mm 5 m/s 748 mmHg 86%
    15:00 +8°C° 0.4 mm 6 m/s 747 mmHg 87%
    16:00 +8°C° 0.4 mm 6 m/s 747 mmHg 89%
    17:00 +8°C° 0.4 mm 6 m/s 746 mmHg 90%
    18:00 +7°C° 0.8 mm 6 m/s 746 mmHg 90%
    19:00 +6°C° 0.8 mm 7 m/s 745 mmHg 90%
    20:00 +6°C° 0.8 mm 7 m/s 745 mmHg 90%
    21:00 +5°C° 0.3 mm 7 m/s 744 mmHg 90%
    22:00 +5°C° 0.3 mm 7 m/s 744 mmHg 89%
    23:00 +5°C° 0.3 mm 7 m/s 743 mmHg 89%

    27 Septembrie, Joi

    Timp Temperatura Precipitaţii Vânt Presiune Umiditate
    00:00 +5°C° 0.2 mm 7 m/s 742 mmHg 89%
    01:00 +5°C° 0.2 mm 7 m/s 742 mmHg 90%
    02:00 +5°C° 0.2 mm 7 m/s 741 mmHg 90%
    03:00 +6°C° 0.2 mm 7 m/s 740 mmHg 90%
    04:00 +6°C° 0.2 mm 7 m/s 739 mmHg 91%
    05:00 +6°C° 0.2 mm 7 m/s 739 mmHg 91%
    06:00 +8°C° 0.5 mm 7 m/s 738 mmHg 91%
    07:00 +8°C° 0.5 mm 7 m/s 738 mmHg 91%
    08:00 +9°C° 0.5 mm 7 m/s 738 mmHg 91%
    09:00 +9°C° 0.7 mm 7 m/s 737 mmHg 90%
    10:00 +9°C° 0.7 mm 7 m/s 737 mmHg 90%
    11:00 +10°C° 0.7 mm 6 m/s 737 mmHg 89%
    12:00 +10°C° 1.1 mm 6 m/s 736 mmHg 88%
    13:00 +10°C° 1.1 mm 6 m/s 736 mmHg 87%
    14:00 +10°C° 1.1 mm 6 m/s 736 mmHg 86%
    15:00 +10°C° 0.3 mm 5 m/s 736 mmHg 84%
    16:00 +10°C° 0.3 mm 5 m/s 736 mmHg 82%
    17:00 +10°C° 0.3 mm 4 m/s 736 mmHg 80%
    18:00 +8°C° 0 mm 4 m/s 737 mmHg 81%
    19:00 +8°C° 0 mm 4 m/s 737 mmHg 81%
    20:00 +7°C° 0 mm 4 m/s 738 mmHg 82%
    21:00 +6°C° 0 mm 4 m/s 738 mmHg 81%
    22:00 +6°C° 0 mm 4 m/s 738 mmHg 81%
    23:00 +6°C° 0 mm 4 m/s 738 mmHg 80%
    Arată mai mult